| time (UTC) | temp C | wind direction | speed KPH | gust KPH | rain 1hr cm | rain 24hr cm | rain mn cm | humidity % | barometer mb |
| 20260506175617 | 8 | 23 | 8.0 | 9.7 | 0.00 | 2.69 | 2.69 | 93 | 1009.1 |
| 20260506174617 | 8 | 23 | 8.0 | 12.9 | 0.00 | 2.69 | 2.69 | 94 | 1009.1 |
| 20260506173617 | 8 | 23 | 8.0 | 11.3 | 0.03 | 2.69 | 2.69 | 94 | 1009.0 |
| 20260506172617 | 8 | 23 | 8.0 | 16.1 | 0.03 | 2.69 | 2.69 | 94 | 1008.9 |
| 20260506171617 | 8 | 23 | 12.9 | 16.1 | 0.03 | 2.69 | 2.69 | 94 | 1008.9 |
| 20260506170617 | 8 | 23 | 11.3 | 17.7 | 0.05 | 2.69 | 2.69 | 94 | 1008.9 |
| 20260506165617 | 8 | 23 | 8.0 | 12.9 | 0.05 | 2.69 | 2.69 | 94 | 1008.9 |
| 20260506164617 | 8 | 23 | 6.4 | 8.0 | 0.05 | 2.69 | 2.69 | 95 | 1008.9 |
| 20260506163616 | 8 | 0 | 8.0 | 11.3 | 0.03 | 2.67 | 2.67 | 95 | 1008.9 |
| 20260506162616 | 8 | 23 | 8.0 | 11.3 | 0.05 | 2.67 | 2.67 | 95 | 1008.9 |
| 20260506161616 | 8 | 0 | 6.4 | 9.7 | 0.05 | 2.67 | 2.67 | 95 | 1008.9 |
| 20260506160616 | 8 | 0 | 4.8 | 6.4 | 0.03 | 2.64 | 2.64 | 95 | 1008.9 |
| 20260506155616 | 7 | 23 | 4.8 | 8.0 | 0.05 | 2.64 | 2.64 | 95 | 1008.9 |
| 20260506154617 | 7 | 23 | 8.0 | 11.3 | 0.08 | 2.64 | 2.64 | 95 | 1008.9 |
| 20260506153616 | 7 | 45 | 8.0 | 11.3 | 0.08 | 2.64 | 2.64 | 94 | 1008.9 |
| 20260506152616 | 7 | 23 | 9.7 | 16.1 | 0.08 | 2.62 | 2.62 | 94 | 1008.9 |
| 20260506151617 | 7 | 23 | 8.0 | 17.7 | 0.13 | 2.62 | 2.62 | 94 | 1008.9 |
| 20260506150616 | 7 | 45 | 14.5 | 22.5 | 0.15 | 2.62 | 2.62 | 95 | 1008.9 |
| 20260506145616 | 7 | 23 | 17.7 | 24.1 | 0.15 | 2.59 | 2.59 | 95 | 1008.9 |
| 20260506144616 | 7 | 23 | 12.9 | 20.9 | 0.18 | 2.57 | 2.57 | 95 | 1008.9 |
| 20260506143616 | 7 | 45 | 12.9 | 19.3 | 0.20 | 2.57 | 2.57 | 95 | 1008.9 |
| 20260506142616 | 7 | 23 | 8.0 | 11.3 | 0.20 | 2.54 | 2.54 | 95 | 1008.9 |
| 20260506141616 | 7 | 23 | 8.0 | 14.5 | 0.18 | 2.49 | 2.49 | 95 | 1008.9 |
| 20260506140616 | 7 | 45 | 9.7 | 16.1 | 0.15 | 2.46 | 2.46 | 95 | 1008.9 |
| 20260506135616 | 7 | 45 | 11.3 | 19.3 | 0.18 | 2.44 | 2.44 | 95 | 1008.8 |
| 20260506134616 | 7 | 45 | 14.5 | 22.5 | 0.15 | 2.39 | 2.39 | 95 | 1008.8 |
| 20260506133616 | 7 | 0 | 6.4 | 9.7 | 0.18 | 2.36 | 2.36 | 95 | 1008.6 |
| 20260506132616 | 7 | 0 | 6.4 | 8.0 | 0.20 | 2.34 | 2.34 | 95 | 1008.4 |
| 20260506131615 | 7 | 0 | 6.4 | 9.7 | 0.20 | 2.31 | 2.31 | 95 | 1008.4 |
| 20260506130616 | 7 | 0 | 4.8 | 6.4 | 0.25 | 2.31 | 2.31 | 95 | 1008.4 |
| 20260506125616 | 7 | 23 | 9.7 | 12.9 | 0.23 | 2.26 | 2.26 | 95 | 1008.4 |
| 20260506124615 | 7 | 45 | 8.0 | 11.3 | 0.25 | 2.24 | 2.24 | 95 | 1008.4 |
| 20260506123616 | 7 | 23 | 6.4 | 11.3 | 0.23 | 2.18 | 2.18 | 95 | 1008.4 |
| 20260506122615 | 7 | 23 | 6.4 | 8.0 | 0.23 | 2.16 | 2.13 | 95 | 1008.4 |
| 20260506121616 | 7 | 45 | 12.9 | 20.9 | 0.23 | 2.13 | 2.11 | 95 | 1008.4 |
| 20260506120615 | 7 | 23 | 14.5 | 19.3 | 0.23 | 2.08 | 2.06 | 95 | 1008.3 |
| 20260506115615 | 7 | 23 | 16.1 | 22.5 | 0.23 | 2.06 | 2.03 | 95 | 1008.3 |
| 20260506114615 | 7 | 23 | 9.7 | 11.3 | 0.23 | 2.01 | 1.98 | 95 | 1008.3 |
| 20260506113615 | 7 | 0 | 9.7 | 19.3 | 0.23 | 2.01 | 1.96 | 95 | 1008.1 |
| 20260506112615 | 7 | 23 | 11.3 | 17.7 | 0.20 | 1.96 | 1.91 | 95 | 1008.0 |
| 20260506111615 | 7 | 45 | 17.7 | 24.1 | 0.23 | 1.93 | 1.88 | 95 | 1008.0 |
| 20260506110615 | 7 | 45 | 14.5 | 20.9 | 0.20 | 1.88 | 1.83 | 95 | 1007.9 |
| 20260506105617 | 7 | 45 | 9.7 | 16.1 | 0.23 | 1.85 | 1.80 | 95 | 1007.9 |
| 20260506104617 | 7 | 45 | 9.7 | 12.9 | 0.20 | 1.80 | 1.75 | 95 | 1007.9 |
| 20260506103617 | 7 | 45 | 11.3 | 17.7 | 0.18 | 1.78 | 1.73 | 95 | 1007.9 |
| 20260506102617 | 7 | 0 | 8.0 | 11.3 | 0.18 | 1.75 | 1.70 | 95 | 1007.8 |
| 20260506101617 | 7 | 0 | 11.3 | 17.7 | 0.13 | 1.70 | 1.65 | 95 | 1007.8 |
| 20260506100617 | 7 | 23 | 9.7 | 16.1 | 0.13 | 1.68 | 1.63 | 95 | 1007.7 |
| 20260506095617 | 7 | 45 | 8.0 | 11.3 | 0.08 | 1.63 | 1.57 | 95 | 1007.7 |
| 20260506094617 | 7 | 23 | 9.7 | 11.3 | 0.08 | 1.60 | 1.55 | 95 | 1007.7 |
| 20260506093617 | 7 | 23 | 8.0 | 12.9 | 0.08 | 1.60 | 1.55 | 95 | 1007.5 |
| 20260506092617 | 6 | 23 | 8.0 | 11.3 | 0.10 | 1.57 | 1.52 | 95 | 1007.4 |
| 20260506091617 | 6 | 23 | 9.7 | 14.5 | 0.10 | 1.57 | 1.52 | 95 | 1007.4 |
| 20260506090617 | 6 | 0 | 6.4 | 11.3 | 0.10 | 1.55 | 1.50 | 95 | 1007.4 |
| 20260506085617 | 6 | 23 | 8.0 | 11.3 | 0.10 | 1.55 | 1.50 | 95 | 1007.4 |
| 20260506084617 | 6 | 23 | 14.5 | 17.7 | 0.10 | 1.52 | 1.47 | 95 | 1007.4 |
| 20260506083617 | 6 | 45 | 11.3 | 17.7 | 0.10 | 1.52 | 1.47 | 95 | 1007.4 |
| 20260506082616 | 6 | 23 | 8.0 | 14.5 | 0.08 | 1.47 | 1.42 | 95 | 1007.4 |
| 20260506081616 | 6 | 23 | 12.9 | 19.3 | 0.10 | 1.47 | 1.42 | 95 | 1007.4 |
| 20260506080617 | 6 | 23 | 12.9 | 17.7 | 0.10 | 1.45 | 1.40 | 95 | 1007.4 |
| 20260506072616 | 6 | 45 | 11.3 | 17.7 | 0.18 | 1.40 | 1.35 | 95 | 1007.3 |
| 20260506071616 | 6 | 23 | 6.4 | 9.7 | 0.18 | 1.37 | 1.32 | 95 | 1007.3 |
| 20260506070616 | 6 | 45 | 6.4 | 9.7 | 0.18 | 1.35 | 1.30 | 94 | 1007.3 |
| 20260506061616 | 6 | 45 | 12.9 | 17.7 | 0.10 | 1.19 | 1.14 | 94 | 1007.0 |
| 20260506060616 | 6 | 23 | 11.3 | 17.7 | 0.10 | 1.17 | 1.12 | 94 | 1006.9 |
| 20260506050616 | 6 | 68 | 9.7 | 14.5 | 0.18 | 1.07 | 1.02 | 94 | 1006.9 |
| 20260506044616 | 6 | 45 | 11.3 | 17.7 | 0.18 | 1.04 | 0.97 | 94 | 1006.9 |
| 20260506043616 | 6 | 23 | 11.3 | 16.1 | 0.15 | 0.99 | 0.91 | 94 | 1006.8 |
| 20260506042616 | 6 | 68 | 11.3 | 20.9 | 0.15 | 0.97 | 0.89 | 94 | 1006.8 |
| 20260506041616 | 7 | 45 | 12.9 | 17.7 | 0.18 | 0.97 | 0.86 | 94 | 1006.8 |
| 20260506040616 | 7 | 23 | 9.7 | 14.5 | 0.18 | 0.94 | 0.84 | 94 | 1006.8 |
| 20260506035615 | 7 | 45 | 9.7 | 14.5 | 0.20 | 0.91 | 0.81 | 94 | 1006.8 |
| 20260506034616 | 7 | 23 | 8.0 | 14.5 | 0.23 | 0.91 | 0.79 | 94 | 1006.8 |
| 20260506033616 | 7 | 23 | 11.3 | 19.3 | 0.25 | 0.89 | 0.76 | 94 | 1006.8 |
| 20260506032615 | 7 | 23 | 8.0 | 14.5 | 0.28 | 0.86 | 0.74 | 94 | 1006.9 |
| 20260506031616 | 7 | 45 | 9.7 | 14.5 | 0.28 | 0.84 | 0.69 | 94 | 1006.9 |
| 20260506030615 | 7 | 45 | 9.7 | 16.1 | 0.30 | 0.81 | 0.66 | 93 | 1007.1 |
| 20260506025616 | 7 | 0 | 11.3 | 16.1 | 0.30 | 0.76 | 0.61 | 93 | 1007.2 |
| 20260506024616 | 7 | 45 | 11.3 | 19.3 | 0.30 | 0.74 | 0.56 | 93 | 1007.2 |
| 20260506023615 | 8 | 23 | 12.9 | 19.3 | 0.30 | 0.69 | 0.51 | 93 | 1007.3 |
| 20260506022615 | 8 | 45 | 12.9 | 17.7 | 0.30 | 0.66 | 0.46 | 93 | 1007.3 |
| 20260506021615 | 8 | 23 | 14.5 | 20.9 | 0.28 | 0.61 | 0.41 | 93 | 1007.3 |
| 20260506020615 | 8 | 45 | 8.0 | 11.3 | 0.25 | 0.58 | 0.36 | 93 | 1007.4 |
| 20260506015615 | 8 | 23 | 8.0 | 16.1 | 0.23 | 0.53 | 0.30 | 93 | 1007.4 |
| 20260506014615 | 8 | 45 | 11.3 | 17.7 | 0.20 | 0.48 | 0.25 | 92 | 1007.4 |
| 20260506013615 | 8 | 0 | 9.7 | 14.5 | 0.15 | 0.43 | 0.20 | 92 | 1007.5 |
| 20260506012615 | 8 | 0 | 8.0 | 11.3 | 0.13 | 0.41 | 0.15 | 92 | 1007.6 |
| 20260506011617 | 9 | 23 | 6.4 | 8.0 | 0.13 | 0.38 | 0.13 | 91 | 1007.6 |
| 20260506010617 | 9 | 23 | 9.7 | 14.5 | 0.10 | 0.36 | 0.10 | 91 | 1007.6 |
| 20260506005617 | 9 | 0 | 6.4 | 9.7 | 0.08 | 0.33 | 0.08 | 90 | 1007.8 |
| 20260506004617 | 9 | 0 | 6.4 | 9.7 | 0.05 | 0.33 | 0.05 | 90 | 1007.8 |
| 20260506003617 | 10 | 23 | 9.7 | 19.3 | 0.05 | 0.33 | 0.05 | 89 | 1007.9 |
| 20260506002617 | 10 | 23 | 9.7 | 16.1 | 0.03 | 0.30 | 0.03 | 88 | 1007.9 |
| 20260506001617 | 10 | 23 | 11.3 | 14.5 | 0.00 | 0.28 | 0.00 | 88 | 1007.9 |
| 20260506000617 | 10 | 45 | 9.7 | 16.1 | 0.00 | 0.28 | 0.00 | 88 | 1007.9 |
| 20260505235617 | 10 | 23 | 8.0 | 14.5 | 0.00 | 0.28 | 0.00 | 89 | 1008.1 |
| 20260505234617 | 10 | 23 | 11.3 | 17.7 | 0.00 | 0.28 | 0.00 | 89 | 1008.1 |
| 20260505233617 | 10 | 23 | 8.0 | 12.9 | 0.00 | 0.30 | 0.00 | 89 | 1008.3 |
| 20260505232617 | 10 | 23 | 9.7 | 14.5 | 0.00 | 0.30 | 0.00 | 89 | 1008.4 |
| 20260505231617 | 10 | 45 | 9.7 | 12.9 | 0.00 | 0.30 | 0.00 | 89 | 1008.4 |
| 20260505230617 | 10 | 45 | 9.7 | 11.3 | 0.00 | 0.30 | 0.00 | 90 | 1008.4 |
| 20260505225617 | 10 | 45 | 8.0 | 14.5 | 0.00 | 0.33 | 0.00 | 90 | 1008.4 |
| 20260505224616 | 10 | 23 | 12.9 | 17.7 | 0.00 | 0.33 | 0.00 | 91 | 1008.4 |
| 20260505223617 | 10 | 45 | 8.0 | 9.7 | 0.00 | 0.36 | 0.00 | 91 | 1008.6 |
| 20260505222617 | 10 | 23 | 6.4 | 9.7 | 0.00 | 0.38 | 0.00 | 92 | 1008.6 |
| 20260505221617 | 10 | 23 | 9.7 | 12.9 | 0.00 | 0.41 | 0.00 | 92 | 1008.6 |
| 20260505220616 | 10 | 23 | 9.7 | 14.5 | 0.00 | 0.46 | 0.00 | 92 | 1008.7 |
| 20260505215616 | 10 | 45 | 14.5 | 17.7 | 0.00 | 0.51 | 0.48 | 93 | 1008.8 |
| 20260505214616 | 10 | 45 | 6.4 | 8.0 | 0.00 | 0.61 | 0.48 | 93 | 1008.8 |
| 20260505213616 | 10 | 23 | 6.4 | 9.7 | 0.00 | 0.71 | 0.48 | 93 | 1008.9 |
| 20260505212616 | 10 | 23 | 4.8 | 6.4 | 0.00 | 0.79 | 0.48 | 93 | 1008.9 |
| 20260505211616 | 10 | 23 | 6.4 | 8.0 | 0.00 | 0.89 | 0.48 | 93 | 1008.9 |
| 20260505210616 | 10 | 23 | 4.8 | 8.0 | 0.00 | 0.97 | 0.48 | 93 | 1008.9 |
| 20260505205616 | 10 | 23 | 4.8 | 6.4 | 0.00 | 1.04 | 0.48 | 93 | 1008.9 |
| 20260505204616 | 10 | 0 | 4.8 | 8.0 | 0.00 | 1.12 | 0.48 | 93 | 1008.9 |
| 20260505203615 | 10 | 23 | 9.7 | 11.3 | 0.00 | 1.14 | 0.48 | 93 | 1008.9 |
| 20260505202615 | 10 | 23 | 6.4 | 9.7 | 0.00 | 1.14 | 0.48 | 92 | 1008.9 |
| 20260505201616 | 10 | 0 | 6.4 | 9.7 | 0.00 | 1.17 | 0.48 | 92 | 1008.9 |
| 20260505200616 | 10 | 0 | 6.4 | 11.3 | 0.00 | 1.17 | 0.48 | 92 | 1008.9 |
| 20260505195616 | 11 | 0 | 4.8 | 6.4 | 0.00 | 1.17 | 0.48 | 92 | 1008.9 |
| 20260505194616 | 11 | 23 | 4.8 | 8.0 | 0.00 | 1.17 | 0.48 | 91 | 1008.9 |
| 20260505193616 | 11 | 45 | 6.4 | 9.7 | 0.00 | 1.17 | 0.48 | 91 | 1008.9 |
| 20260505192615 | 11 | 23 | 6.4 | 9.7 | 0.00 | 1.17 | 0.48 | 91 | 1008.9 |
| 20260505191615 | 11 | 23 | 6.4 | 9.7 | 0.00 | 1.17 | 0.48 | 91 | 1008.9 |
| 20260505190615 | 11 | 45 | 6.4 | 8.0 | 0.00 | 1.17 | 0.48 | 90 | 1008.9 |
| 20260505185615 | 11 | 45 | 8.0 | 11.3 | 0.00 | 1.17 | 0.48 | 90 | 1008.9 |
| 20260505184615 | 11 | 23 | 6.4 | 8.0 | 0.00 | 1.17 | 0.48 | 90 | 1008.9 |
| 20260505183615 | 11 | 45 | 4.8 | 8.0 | 0.00 | 1.17 | 0.48 | 90 | 1008.9 |
| 20260505182615 | 11 | 45 | 6.4 | 9.7 | 0.00 | 1.17 | 0.48 | 90 | 1008.9 |
| 20260505181615 | 11 | 23 | 9.7 | 14.5 | 0.00 | 1.17 | 0.48 | 89 | 1008.9 |
| 20260505180617 | 11 | 45 | 8.0 | 12.9 | 0.00 | 1.17 | 0.48 | 89 | 1008.9 |